Time,TemperatureF,DewpointF,PressureIn,WindDirection,WindDirectionDegrees,WindSpeedMPH,WindSpeedGustMPH,Humidity,HourlyPrecipIn,Conditions,Clouds,dailyrainin,SolarRadiationWatts/m^2,SoftwareType,DateUTC
2017-01-22 00:00:00,38.7,37.3,29.63,WSW,254,0.0,0.0,94,0.00,,,-99.99,1.0,HOBO +U30 +Weather +,2017-01-22 05:00:00,
2017-01-22 00:15:00,38.6,37.3,29.62,WSW,254,0.0,0.0,95,0.00,,,-99.99,1.0,HOBO +U30 +Weather +,2017-01-22 05:15:00,
2017-01-22 00:30:00,39.4,38.2,29.62,WSW,254,0.0,0.0,95,0.00,,,-99.99,1.0,HOBO +U30 +Weather +,2017-01-22 05:30:00,
2017-01-22 00:45:00,39.3,38.1,29.62,WSW,254,0.0,0.0,95,0.00,,,-99.99,1.0,HOBO +U30 +Weather +,2017-01-22 05:45:00,
2017-01-22 01:00:00,38.2,37.1,29.62,WSW,254,0.0,0.0,95,0.00,,,-99.99,1.0,HOBO +U30 +Weather +,2017-01-22 06:00:00,
2017-01-22 01:15:00,39.4,38.3,29.62,WSW,254,0.0,0.0,95,0.00,,,-99.99,1.0,HOBO +U30 +Weather +,2017-01-22 06:15:00,
2017-01-22 01:30:00,39.3,38.2,29.62,WSW,254,0.0,0.0,96,0.00,,,-99.99,1.0,HOBO +U30 +Weather +,2017-01-22 06:30:00,
2017-01-22 01:45:00,38.9,37.9,29.62,WSW,254,0.0,0.0,96,0.00,,,-99.99,1.0,HOBO +U30 +Weather +,2017-01-22 06:45:00,
2017-01-22 02:00:00,39.8,38.8,29.63,WSW,254,0.0,0.0,96,0.00,,,-99.99,1.0,HOBO +U30 +Weather +,2017-01-22 07:00:00,
2017-01-22 02:15:00,38.7,37.7,29.63,WSW,254,0.0,0.0,96,0.00,,,-99.99,1.0,HOBO +U30 +Weather +,2017-01-22 07:15:00,
2017-01-22 02:30:00,39.8,38.9,29.62,WSW,254,0.0,0.0,96,0.00,,,-99.99,1.0,HOBO +U30 +Weather +,2017-01-22 07:30:00,
2017-01-22 02:45:00,38.8,37.8,29.62,WSW,253,0.0,0.0,96,0.00,,,-99.99,1.0,HOBO +U30 +Weather +,2017-01-22 07:45:00,
2017-01-22 03:00:00,38.8,37.9,29.62,WSW,253,0.0,0.0,96,0.00,,,-99.99,1.0,HOBO +U30 +Weather +,2017-01-22 08:00:00,
2017-01-22 03:15:00,38.4,37.6,29.62,WSW,244,0.0,0.0,96,0.00,,,-99.99,1.0,HOBO +U30 +Weather +,2017-01-22 08:15:00,
2017-01-22 03:30:00,39.1,38.3,29.62,SW,230,0.0,0.0,96,0.00,,,-99.99,1.0,HOBO +U30 +Weather +,2017-01-22 08:30:00,
2017-01-22 03:45:00,39.2,38.4,29.62,SW,229,0.0,0.0,96,0.00,,,-99.99,1.0,HOBO +U30 +Weather +,2017-01-22 08:45:00,
2017-01-22 04:00:00,39.5,38.8,29.62,SW,216,0.0,0.0,97,0.00,,,-99.99,1.0,HOBO +U30 +Weather +,2017-01-22 09:00:00,
2017-01-22 04:15:00,39.0,38.2,29.61,SSW,205,0.0,0.0,97,0.00,,,-99.99,1.0,HOBO +U30 +Weather +,2017-01-22 09:15:00,
2017-01-22 04:30:00,38.5,37.7,29.62,SSW,204,1.3,4.3,97,0.00,,,-99.99,1.0,HOBO +U30 +Weather +,2017-01-22 09:30:00,
2017-01-22 04:45:00,38.6,37.9,29.62,SSW,204,1.3,2.9,97,0.00,,,-99.99,1.0,HOBO +U30 +Weather +,2017-01-22 09:45:00,
2017-01-22 05:00:00,38.7,38.0,29.63,WSW,250,0.4,2.0,97,0.00,,,-99.99,1.0,HOBO +U30 +Weather +,2017-01-22 10:00:00,
2017-01-22 05:15:00,38.8,38.0,29.62,West,272,0.0,0.4,97,0.00,,,-99.99,1.0,HOBO +U30 +Weather +,2017-01-22 10:15:00,
2017-01-22 05:30:00,37.9,37.2,29.63,West,272,0.0,0.0,97,0.00,,,-99.99,1.0,HOBO +U30 +Weather +,2017-01-22 10:30:00,
2017-01-22 05:45:00,38.0,37.4,29.64,West,272,0.0,0.0,97,0.00,,,-99.99,1.0,HOBO +U30 +Weather +,2017-01-22 10:45:00,
2017-01-22 06:00:00,38.6,37.9,29.65,West,272,0.0,0.0,97,0.00,,,-99.99,1.0,HOBO +U30 +Weather +,2017-01-22 11:00:00,
2017-01-22 06:15:00,37.9,37.3,29.65,West,272,0.0,0.0,97,0.00,,,-99.99,1.0,HOBO +U30 +Weather +,2017-01-22 11:15:00,
2017-01-22 06:30:00,37.6,37.0,29.66,West,272,0.0,0.0,97,0.00,,,-99.99,1.0,HOBO +U30 +Weather +,2017-01-22 11:30:00,
2017-01-22 06:45:00,39.1,38.5,29.65,West,272,0.0,0.0,97,0.00,,,-99.99,1.0,HOBO +U30 +Weather +,2017-01-22 11:45:00,
2017-01-22 07:00:00,38.7,38.0,29.65,West,272,0.0,0.0,97,0.00,,,-99.99,6.0,HOBO +U30 +Weather +,2017-01-22 12:00:00,
2017-01-22 07:15:00,38.2,37.6,29.66,West,272,0.0,0.0,97,0.00,,,-99.99,9.0,HOBO +U30 +Weather +,2017-01-22 12:15:00,
2017-01-22 07:30:00,39.2,38.6,29.66,West,272,0.0,0.0,97,0.00,,,-99.99,38.0,HOBO +U30 +Weather +,2017-01-22 12:30:00,
2017-01-22 07:45:00,39.5,39.0,29.66,West,272,0.0,0.0,97,0.00,,,-99.99,61.0,HOBO +U30 +Weather +,2017-01-22 12:45:00,
2017-01-22 08:00:00,40.4,39.9,29.66,West,272,0.0,0.0,98,0.00,,,-99.99,82.0,HOBO +U30 +Weather +,2017-01-22 13:00:00,
2017-01-22 08:15:00,41.4,40.8,29.67,West,272,0.0,0.0,97,0.00,,,-99.99,227.0,HOBO +U30 +Weather +,2017-01-22 13:15:00,
2017-01-22 08:30:00,42.7,42.2,29.67,West,272,0.0,0.0,97,0.00,,,-99.99,97.0,HOBO +U30 +Weather +,2017-01-22 13:30:00,
2017-01-22 08:45:00,43.0,42.5,29.67,West,272,0.0,0.0,97,0.00,,,-99.99,96.0,HOBO +U30 +Weather +,2017-01-22 13:45:00,
2017-01-22 09:00:00,43.8,43.1,29.67,West,272,0.0,0.0,97,0.00,,,-99.99,93.0,HOBO +U30 +Weather +,2017-01-22 14:00:00,
2017-01-22 09:15:00,44.6,43.8,29.67,NW,320,0.0,2.9,97,0.00,,,-99.99,106.0,HOBO +U30 +Weather +,2017-01-22 14:15:00,
2017-01-22 09:30:00,45.3,43.8,29.67,ENE,66,1.3,7.2,94,0.00,,,-99.99,184.0,HOBO +U30 +Weather +,2017-01-22 14:30:00,
2017-01-22 09:45:00,45.8,43.2,29.68,ENE,65,4.9,9.2,90,0.00,,,-99.99,184.0,HOBO +U30 +Weather +,2017-01-22 14:45:00,
2017-01-22 10:00:00,46.8,43.0,29.68,NE,46,4.5,9.6,86,0.00,,,-99.99,232.0,HOBO +U30 +Weather +,2017-01-22 15:00:00,
2017-01-22 10:15:00,46.0,41.6,29.69,NE,42,6.7,12.5,84,0.00,,,-99.99,178.0,HOBO +U30 +Weather +,2017-01-22 15:15:00,
2017-01-22 10:30:00,46.0,42.2,29.69,NE,52,7.2,13.2,86,0.00,,,-99.99,217.0,HOBO +U30 +Weather +,2017-01-22 15:30:00,
2017-01-22 10:45:00,46.0,42.5,29.68,ENE,58,7.8,15.0,87,0.00,,,-99.99,254.0,HOBO +U30 +Weather +,2017-01-22 15:45:00,
2017-01-22 11:00:00,46.2,42.7,29.68,ENE,65,8.7,17.9,87,0.00,,,-99.99,217.0,HOBO +U30 +Weather +,2017-01-22 16:00:00,
2017-01-22 11:15:00,47.3,43.6,29.67,NE,56,7.4,13.2,86,0.00,,,-99.99,222.0,HOBO +U30 +Weather +,2017-01-22 16:15:00,
2017-01-22 11:30:00,47.0,42.8,29.67,NE,38,8.3,16.1,85,0.00,,,-99.99,601.0,HOBO +U30 +Weather +,2017-01-22 16:30:00,
2017-01-22 11:45:00,47.2,42.7,29.68,ENE,58,7.4,13.6,84,0.00,,,-99.99,289.0,HOBO +U30 +Weather +,2017-01-22 16:45:00,
2017-01-22 12:00:00,46.7,42.2,29.67,NE,56,7.8,15.9,84,0.00,,,-99.99,228.0,HOBO +U30 +Weather +,2017-01-22 17:00:00,
2017-01-22 12:15:00,46.3,42.1,29.68,NE,45,7.4,15.9,85,0.00,,,-99.99,119.0,HOBO +U30 +Weather +,2017-01-22 17:15:00,
2017-01-22 12:30:00,45.9,42.2,29.68,NE,44,7.4,13.2,86,0.00,,,-99.99,53.0,HOBO +U30 +Weather +,2017-01-22 17:30:00,
2017-01-22 12:45:00,45.5,42.0,29.68,NE,39,6.3,13.6,87,0.00,,,-99.99,33.0,HOBO +U30 +Weather +,2017-01-22 17:45:00,
2017-01-22 13:00:00,45.2,41.9,29.69,NE,52,6.7,15.0,88,0.00,,,-99.99,31.0,HOBO +U30 +Weather +,2017-01-22 18:00:00,
2017-01-22 13:15:00,44.9,41.6,29.68,NE,48,7.4,14.5,88,0.00,,,-99.99,57.0,HOBO +U30 +Weather +,2017-01-22 18:15:00,
2017-01-22 13:30:00,44.9,41.9,29.67,ENE,58,7.2,14.5,88,0.00,,,-99.99,73.0,HOBO +U30 +Weather +,2017-01-22 18:30:00,
2017-01-22 13:45:00,44.5,41.6,29.67,NE,48,8.7,15.4,89,0.00,,,-99.99,43.0,HOBO +U30 +Weather +,2017-01-22 18:45:00,
2017-01-22 14:00:00,43.8,41.4,29.67,NE,49,9.6,17.0,91,0.00,,,-99.99,46.0,HOBO +U30 +Weather +,2017-01-22 19:00:00,
2017-01-22 14:15:00,43.0,41.2,29.67,ENE,62,10.7,19.9,93,0.00,,,-99.99,22.0,HOBO +U30 +Weather +,2017-01-22 19:15:00,
2017-01-22 14:30:00,42.6,41.3,29.69,ENE,60,7.8,15.9,94,0.00,,,-99.99,14.0,HOBO +U30 +Weather +,2017-01-22 19:30:00,
2017-01-22 14:45:00,42.2,41.0,29.70,NE,56,8.3,19.9,95,0.00,,,-99.99,9.0,HOBO +U30 +Weather +,2017-01-22 19:45:00,
2017-01-22 15:00:00,41.7,40.6,29.71,NE,53,9.6,17.9,96,0.00,,,-99.99,14.0,HOBO +U30 +Weather +,2017-01-22 20:00:00,
2017-01-22 15:15:00,41.6,40.6,29.71,ENE,58,10.1,19.9,96,0.00,,,-99.99,12.0,HOBO +U30 +Weather +,2017-01-22 20:15:00,
2017-01-22 15:30:00,41.4,40.5,29.72,ENE,58,8.3,23.3,96,0.05,,,-99.99,14.0,HOBO +U30 +Weather +,2017-01-22 20:30:00,